Flag for Germany Weather past 2 weeks in Minden, North Rhine-Westphalia, Germany

Now
70 °F

Scattered clouds.


Feels Like: 70 °F
Forecast: 58 / 87 °F
Wind: 6 mph from Northwest

Location: Bueckeburg

Current Time: Aug 2, 2015 at 12:24:24 PM

Latest Report: Aug 2, 2015 at 11:20 AM


Visibility: N/A

Pressure: 30.15 "Hg

Humidity: 43%

Dew point: 46 °F

Location of MindenLocation

Historic Weather in Minden — Graph

°F

Minden temperature yesterday

Maximum temperature yesterday: 75 °F (at 3:20 PM)
Minimum temperature yesterday: 46 °F (at 1:20 AM)
Average temperature yesterday: 61 °F

Past Weeks' High & Low Weather Summary

 TemperatureHumidityPressure
High79 °F (Jul 21, 2:20 PM)100% (Jul 19, 10:20 AM)30.15 "Hg (Jul 19, 10:20 AM)
Low46 °F (Jul 31, 4:20 AM)36% (Aug 1, 3:20 PM)29.47 "Hg (Jul 25, 12:20 PM)
Average63 °F72%29.86 "Hg
* Reported Jul 18 10:20 AM — Aug 2 10:20 AM, Minden, Weather by CustomWeather, © 2015

Note: Actual official high and low records may vary slightly from our data, if they occured in-between our weather recording intervals... More about our weather records

Advertising

Minden weather history for previous 24 hours

 ConditionsComfort  
Time TempWeatherWind HumidityBarometerVisibility
10:20 AM
Sun, Aug 2
68 °FPassing clouds.5 mph49%30.15 "HgN/A
9:20 AM66 °FPassing clouds.3 mph56%30.12 "HgN/A
8:20 AM63 °FPassing clouds.1 mph64%30.12 "HgN/A
7:20 AM55 °FPassing clouds.2 mph88%30.09 "HgN/A
6:20 AM52 °FPassing clouds.2 mph88%30.09 "HgN/A
5:20 AM52 °FCool.3 mph94%30.09 "Hg5 mi
4:20 AM54 °FCool.3 mph88%30.09 "Hg6 mi
3:20 AM54 °FCool.3 mph88%30.07 "Hg5 mi
2:20 AM55 °FCool.3 mph88%30.07 "Hg5 mi
1:20 AM57 °FCool.3 mph82%30.07 "Hg5 mi
12:20 AM57 °FCool.3 mph82%30.04 "Hg5 mi
11:20 PM
Sat, Aug 1
59 °FCool.3 mph82%30.04 "Hg6 mi
10:20 PM63 °FMild.1 mph73%30.04 "Hg5 mi
9:20 PM70 °FMild.3 mph50%30.01 "Hg6 mi
8:20 PM72 °FMild.6 mph47%29.98 "Hg6 mi
7:20 PM75 °FMild.6 mph39%29.95 "HgN/A
6:20 PM75 °FMild.1 mph39%29.95 "Hg5 mi
5:20 PM75 °FMild.3 mph36%29.98 "Hg6 mi
4:20 PM75 °FMild.7 mph39%29.98 "Hg4 mi
3:20 PM75 °FMild.3 mph36%29.98 "Hg4 mi
2:20 PM73 °FMild.2 mph38%29.98 "Hg4 mi
1:20 PM72 °FMild.7 mph41%30.01 "Hg5 mi
12:20 PM68 °FMild.6 mph46%30.01 "HgN/A
Weather by CustomWeather, © 2015

See weather overviewHow to use our weather pages